Regional Weather Roundup
Issued by NWS

Home | Current Version | Previous Version | Graphics & Text | Print | Product List | Glossary On
Versions: 1 2 3 4 5 6 7 8 9 10 11 12 13 14 15 16 17 18 19 20 21 22 23 24 25 26 27 28 29 30 31 32 33 34 35 36 37 38 39 40 41 42 43 44 45 46 47 48 49 50
000
ASUS43 KLOT 300203
RWRIL

ILLINOIS REGIONAL WEATHER ROUNDUP
NATIONAL WEATHER SERVICE CHICAGO/ROMEOVILLE IL
900 PM CDT MON AUG 29 2016

NOTE: "FAIR" INDICATES FEW OR NO CLOUDS BELOW 12,000 FEET WITH NO
SIGNIFICANT WEATHER AND/OR OBSTRUCTIONS TO VISIBILITY.

* THESE STATIONS ARE NOT UNDER NWS QUALITY CONTROL. THEY ALSO MAY NOT
  REPORT WEATHER SUCH AS PRECIPITATION OR FOG.

ILZ001-002-007-009-015-016-024-300300-
NORTHWEST ILLINOIS

CITY           SKY/WX    TMP DP  RH WIND       PRES   REMARKS
MOLINE         CLOUDY    75  72  90 N3        30.16R
STERLING*      CLEAR     71  70  96 CALM      30.18R
SAVANNA*       CLOUDY    71  69  92 CALM      30.16S
$$

ILZ003-004-008-010-011-017-018-300300-
NORTH CENTRAL ILLINOIS

CITY           SKY/WX    TMP DP  RH WIND       PRES   REMARKS
ROCKFORD       CLOUDY    72  70  93 CALM      30.18S
FREEPORT*        N/A     68  67  99 CALM      30.18S FOG
ROCHELLE*      PTCLDY    69  69  99 CALM      30.17S FOG
$$

ILZ005-006-012>014-019>023-300300-
NORTHEAST ILLINOIS

CITY           SKY/WX    TMP DP  RH WIND       PRES   REMARKS
CHICAGO-OHARE  CLOUDY    75  72  90 NE6       30.17S
CHICAGO-MIDWAY CLOUDY    78  71  79 E9        30.16F HX  80
AURORA         CLOUDY    73  71  93 N5        30.18R FOG
LANSING*       CLOUDY    76  74  94 NE5       30.17S
JOLIET*        PTCLDY    74  73  96 CALM      30.16S
WAUKEGAN       CLOUDY    72  70  93 CALM      30.17S
DUPAGE AIRPORT CLOUDY    73  70  90 N6        30.17S
KANKAKEE*      PTCLDY    77  74  91 NE5       30.17R
WHEELING       CLOUDY    74  72  93 CALM      30.18F
MORRIS*        PTCLDY    72  70  94 CALM      30.15S
ROMEOVILLE*    CLOUDY    73  73 100 E5        30.16S
$$

LMZ740>746-300300-
SOUTHERN LAKE MICHIGAN

STATION/POSITION SKY/WX   TEMP    WIND        PRES    VSBY  WAVE
                          AIR SEA DIR/SP/G                  HT/PER
                          (F)     (DEG/KT/KT) (MB)    (MI)  (FT/S)
SOUTHERN BUOY              76 78   80/  4/  4 1021.6          0
WILMETTE HARBOR            74 75  360/  6/  8   N/A           1
HARRISON CRIB              75     340/  6/  6   N/A
BURNHAM HARBOR             74     350/  5/  6   N/A
CALUMET HARBOR             74     340/  4/  6 1021.2F
BURNS HARBOR               72      80/  8/ 10 1022.0S
MICHIGAN CITY              74      50/ 10/ 11   N/A
MICHIGAN CITY 6N           76 76   70/  6/  8   N/A           1/ 3
ST. JOSEPH                 76 76   30/  8/  8 1021.5F         1
$$

ILZ025>027-034>036-040-047-049-050-058-095>099-300300-
WEST-CENTRAL ILLINOIS

CITY           SKY/WX    TMP DP  RH WIND       PRES   REMARKS
QUINCY         CLEAR     77  73  87 NE5       30.14R
MACOMB*        PTCLDY    73  71  93 NE3       30.18R
JACKSONVILLE*  PTCLDY    77  75  91 E3        30.14R
PITTSFIELD*    CLEAR     76  74  93 CALM      30.15S
$$

ILZ028>032-037-038-041>044-048-051>054-059>061-300300-
CENTRAL ILLINOIS

CITY           SKY/WX    TMP DP  RH WIND       PRES   REMARKS
PONTIAC        PTCLDY    78  77  97 NE3       30.17R HX  81
BLOOMINGTON    PTCLDY    78  73  84 E5        30.18R HX  81
DECATUR        CLEAR     77  74  90 CALM      30.16R
PEORIA         PTCLDY    76  74  93 NE6       30.16R
LACON*         PTCLDY    73  69  88 CALM      30.15R
LINCOLN*       CLOUDY    78  75  91 CALM      30.15R HX  81
SPRINGFIELD    PTCLDY    80  73  79 E3        30.15R HX  84
TAYLORVILLE    CLEAR     78  74  86 E3        30.15R HX  81
$$

ILZ033-039-045-046-055>057-062-063-300300-
EAST-CENTRAL ILLINOIS

CITY           SKY/WX    TMP DP  RH WIND       PRES   REMARKS
CHAMPAIGN      CLEAR     76  72  87 CALM      30.16R
RANTOUL*       CLEAR     80  75  86 E3        30.16R HX  84
MATTOON        CLEAR     77  73  87 CALM      30.15R
PARIS*         CLEAR     76  75  96 CALM      30.16R
$$

ILZ079-100>102-300300-
SOUTHWEST ILLINOIS

CITY           SKY/WX    TMP DP  RH WIND       PRES   REMARKS
ALTON          PTCLDY    79  73  83 E6        30.14R HX  82
BELLEVILLE     CLEAR     80  74  81 E3        30.12R HX  84
CAHOKIA*       CLEAR     80  73  79 SE5       30.12R HX  84
SPARTA*        CLEAR     76  73  88 CALM      30.14R
$$

ILZ064>066-069>071-074>076-080>082-084>086-088>090-092>094-300300-
SOUTH-CENTRAL ILLINOIS

CITY           SKY/WX    TMP DP  RH WIND       PRES   REMARKS
CARBONDALE     CLEAR     76  72  87 NE3       30.11R
EFFINGHAM*     CLEAR     75  75 100 CALM      30.16R
MARION         CLEAR     79  73  83 NE3       30.12R HX  82
MT. VERNON     CLEAR     77  70  78 NE3       30.14R
CENTRALIA*     CLEAR     76  75  95 CALM      30.13R
SALEM*         CLEAR     80  73  81 NE3       30.14R HX  84
METROPOLIS*    CLEAR     80  75  86 CALM      30.11R HX  84
$$

ILZ067-068-072-073-078-083-087-091-300300-
SOUTHEAST ILLINOIS

CITY           SKY/WX    TMP DP  RH WIND       PRES   REMARKS
LAWRENCEVILLE  CLEAR     78  78 100 NE6       30.14R HX  81
FLORA*         CLEAR     81  75  82 CALM      30.14R HX  87
FAIRFIELD*     CLEAR     78  73  84 CALM      30.12R HX  80
HARRISBURG*    CLEAR     80  74  79 NE6       30.12R HX  85
ROBINSON*      CLEAR     72  71  98 CALM      30.15R
CARMI*         CLEAR     76  74  93 NE3       30.12R
$$

ABBREVIATIONS USED IN REMARKS
   TC - TEMPERATURE IN CELSIUS
  WCI - WIND CHILL INDEX
   HX - HEAT INDEX
  VSB - VISIBILITY
$$




USA.gov is the U.S. government's official web portal to all federal, state and local government web resources and services.